Location: Cerezo de Arriba
(41.2389°N, 3.5585°W)
Time: 03:46:49
(UTC+00:00)

Cosmos 1833 Rocket - Pass Details

Date: 19 May 2025
Orbit: 832 x 838 km, 71.0° (Epoch: 23 June)

Event Time Altitude Azimuth Distance (km) Brightness Sun altitude
Rises 20:19:22 0° 177° (S) 3,372 5.5 -8.7°
Reaches altitude 10° 20:21:58 10° 169° (S) 2,443 4.7 -9.1°
Maximum altitude 20:27:00 36° 105° (ESE) 1,313 3.3 -9.8°
Drops below altitude 10° 20:32:05 10° 41° (NE) 2,459 5.1 -10.6°
Sets 20:34:42 0° 33° (NNE) 3,397 5.9 -11.0°
